This demonstration page uses our WeatherBlox Daily Observations layout. Learn more.

Left ArrowRight Arrow

Hourly Observations for May 22, 2015

Temp ( °F °C ) Dew Point ( °F °C ) Humidity (%) Winds ( mph kmh ) Pressure ( in mb ) Visibility ( mi km ) Precip ( " mm )
12:16 am 00:16 Clear 52 11 34 1 50 50 WSW 8 13 30.15 1021 10 16.0934 N/A
12:36 am 00:36 Clear 52 11 34 1 50 50 SW 7 11 30.15 1021 10 16.0934 N/A
12:56 am 00:56 Clear 50 10 34 1 54 54 WSW 8 13 30.15 1021 10 16.0934 N/A
1:16 am 01:16 Clear 50 10 34 1 54 54 SW 8 13 30.15 1021 10 16.0934 N/A
1:36 am 01:36 Clear 50 10 34 1 54 54 SW 8 13 30.15 1021 10 16.0934 N/A
1:56 am 01:56 Clear 50 10 34 1 54 54 SW 8 13 30.15 1021 10 16.0934 N/A
2:16 am 02:16 Clear 50 10 36 2 58 58 SW 8 13 30.15 1021 10 16.0934 N/A
2:36 am 02:36 Clear 48 9 36 2 62 62 WSW 7 11 30.15 1021 10 16.0934 N/A
2:57 am 02:57 Clear 48 9 36 2 62 62 WSW 6 9 30.15 1021 10 16.0934 N/A
3:16 am 03:16 Clear 46 8 36 2 66 66 WSW 7 11 30.15 1021 10 16.0934 N/A
3:36 am 03:36 Clear 46 8 36 2 66 66 W 7 11 30.15 1021 10 16.0934 N/A
3:56 am 03:56 Clear 46 8 37 3 71 71 WSW 8 13 30.15 1021 10 16.0934 N/A
4:16 am 04:16 Clear 48 9 37 3 66 66 WSW 7 11 30.15 1021 10 16.0934 N/A
4:36 am 04:36 Clear 48 9 37 3 66 66 WSW 7 11 30.15 1021 10 16.0934 N/A
4:56 am 04:56 Clear 48 9 37 3 66 66 SW 8 13 30.15 1021 10 16.0934 N/A
5:16 am 05:16 Clear 48 9 37 3 66 66 SW 9 15 30.15 1021 10 16.0934 N/A
5:37 am 05:37 Clear 48 9 37 3 66 66 WSW 8 13 30.18 1022 10 16.0934 N/A
5:56 am 05:56 Clear 48 9 37 3 66 66 SW 8 13 30.18 1022 10 16.0934 N/A
6:16 am 06:16 Clear 48 9 39 4 71 71 SW 8 13 30.18 1022 10 16.0934 N/A
6:36 am 06:36 Sunny 46 8 39 4 76 76 SW 7 11 30.18 1022 10 16.0934 N/A
6:56 am 06:56 Sunny 48 9 37 3 66 66 SW 6 9 30.18 1022 10 16.0934 N/A
7:16 am 07:16 Sunny 50 10 37 3 62 62 WSW 7 11 30.18 1022 10 16.0934 N/A
7:36 am 07:36 Sunny 50 10 37 3 62 62 WSW 9 15 30.21 1023 10 16.0934 N/A
7:56 am 07:56 Sunny 52 11 37 3 58 58 WSW 9 15 30.21 1023 10 16.0934 N/A
8:17 am 08:17 Sunny 54 12 37 3 54 54 WSW 8 13 30.21 1023 10 16.0934 N/A
8:36 am 08:36 Sunny 55 13 36 2 47 47 WSW 10 17 30.21 1023 10 16.0934 N/A
8:56 am 08:56 Sunny 57 14 36 2 44 44 WSW 9 15 30.18 1022 10 16.0934 N/A
9:16 am 09:16 Sunny 59 15 36 2 42 42 WSW 9 15 30.18 1022 10 16.0934 N/A
9:36 am 09:36 Sunny 59 15 36 2 42 42 WSW 9 15 30.18 1022 10 16.0934 N/A
9:56 am 09:56 Sunny 61 16 36 2 39 39 W 10 17 30.18 1022 10 16.0934 N/A
10:16 am 10:16 Sunny 63 17 36 2 37 37 WSW 8 13 30.18 1022 10 16.0934 N/A
10:36 am 10:36 Sunny 63 17 36 2 37 37 WSW 7 11 30.18 1022 10 16.0934 N/A
10:57 am 10:57 Sunny 64 18 36 2 34 34 WSW 6 9 30.18 1022 10 16.0934 N/A
11:16 am 11:16 Sunny 66 19 36 2 32 32 W 8 13 30.18 1022 10 16.0934 N/A
11:36 am 11:36 Sunny 66 19 36 2 32 32 WSW 10 17 30.18 1022 10 16.0934 N/A
11:56 am 11:56 Sunny 68 20 36 2 30 30 SW 7 11 30.18 1022 10 16.0934 N/A
12:16 pm 12:16 Sunny 68 20 36 2 30 30 W 6 9 30.18 1022 10 16.0934 N/A
12:36 pm 12:36 Sunny 70 21 36 2 29 29 W 10 17 30.18 1022 10 16.0934 N/A
12:56 pm 12:56 Sunny 70 21 34 1 27 27 W 8 13 30.18 1022 10 16.0934 N/A
1:16 pm 13:16 Sunny 72 22 34 1 25 25 WSW 7 11 30.18 1022 10 16.0934 N/A
1:36 pm 13:36 Sunny 72 22 32 0 23 23 WNW 8 13 30.18 1022 10 16.0934 N/A
1:56 pm 13:56 Sunny 72 22 32 0 23 23 NNW 9 15 30.18 1022 10 16.0934 N/A
2:17 pm 14:17 Sunny 72 22 30 -1 22 22 W 8 13 30.18 1022 10 16.0934 N/A
2:36 pm 14:36 Sunny 73 23 32 0 22 22 NNW 12 19 30.15 1021 10 16.0934 N/A
2:56 pm 14:56 Sunny 73 23 30 -1 20 20 WNW 9 15 30.15 1021 10 16.0934 N/A
3:16 pm 15:16 Sunny 73 23 28 -2 19 19 WSW 6 9 30.15 1021 10 16.0934 N/A
3:36 pm 15:36 Sunny 73 23 27 -3 17 17 WNW 8 13 30.15 1021 10 16.0934 N/A
3:57 pm 15:57 Sunny 75 24 23 -5 14 14 WNW 3 6 30.15 1021 10 16.0934 N/A
4:16 pm 16:16 Sunny 75 24 21 -6 13 13 NNW 7 11 30.15 1021 10 16.0934 N/A
4:36 pm 16:36 Sunny 75 24 23 -5 14 14 W 10 17 30.15 1021 10 16.0934 N/A
4:56 pm 16:56 Sunny 73 23 27 -3 17 17 NNW 8 13 30.15 1021 10 16.0934 N/A
5:16 pm 17:16 Sunny 73 23 27 -3 17 17 NW 7 11 30.15 1021 10 16.0934 N/A
5:36 pm 17:36 Sunny 72 22 27 -3 19 19 NNW 10 17 30.18 1022 10 16.0934 N/A
5:56 pm 17:56 Sunny 73 23 23 -5 15 15 WNW 9 15 30.15 1021 10 16.0934 N/A
6:16 pm 18:16 Sunny 73 23 25 -4 16 16 WNW 14 22 30.15 1021 10 16.0934 N/A
6:36 pm 18:36 Sunny 72 22 25 -4 17 17 N 12 19 30.18 1022 10 16.0934 N/A
6:56 pm 18:56 Sunny 72 22 25 -4 17 17 NW 9 15 30.18 1022 10 16.0934 N/A
7:16 pm 19:16 Sunny 72 22 27 -3 19 19 NW 8 13 30.21 1023 10 16.0934 N/A
7:37 pm 19:37 Sunny 70 21 30 -1 23 23 NNW 9 15 30.21 1023 10 16.0934 N/A
7:56 pm 19:56 Sunny 72 22 27 -3 19 19 NNW 8 13 30.21 1023 10 16.0934 N/A
8:16 pm 20:16 Sunny 70 21 28 -2 21 21 N 6 9 30.21 1023 10 16.0934 N/A
8:36 pm 20:36 Sunny 66 19 30 -1 26 26 N 6 9 30.21 1023 10 16.0934 N/A
8:56 pm 20:56 Sunny 63 17 34 1 34 34 NE 3 6 30.21 1023 10 16.0934 N/A
9:16 pm 21:16 Clear 64 18 32 0 30 30 Calm 30.21 1023 10 16.0934 N/A
9:36 pm 21:36 Clear 63 17 32 0 32 32 Calm 30.21 1023 10 16.0934 N/A
9:56 pm 21:56 Clear 61 16 34 1 36 36 Calm 30.21 1023 10 16.0934 N/A
10:16 pm 22:16 Clear 59 15 36 2 42 42 Calm 30.24 1024 10 16.0934 N/A
10:36 pm 22:36 Clear 59 15 36 2 42 42 Calm 30.24 1024 10 16.0934 N/A
10:56 pm 22:56 Clear 59 15 36 2 42 42 Calm 30.24 1024 10 16.0934 N/A
11:16 pm 23:16 Clear 55 13 37 3 51 51 NNE 3 6 30.3 1026 10 16.0934 N/A
11:36 pm 23:36 Clear 54 12 39 4 58 58 Calm 30.3 1026 10 16.0934 N/A
11:56 pm 23:56 Clear 54 12 37 3 54 54 Calm 30.3 1026 10 16.0934 N/A

Powered by AerisWeather